CLUSTER II-FM8 (TANGO)

Last updated on Jan. 23, 2021, 7:35 a.m. UTC

1 26464U 00045B   21024.98687746  .00000136  00000-0  00000-0 0  9995
2 26464 132.4214 343.3504 4682622 188.8074 359.1939  0.44219256 11575
UTC
Height (km)
Latitude
Longitude
Inclination
Orbital Period
UTC large
Height (km)
Speed (km/s)
/
Latitude / Longitude
Inclination (degrees)
Orbital Period (minutes)
Azimuth
Elevation
Range (km)
Doppler Factor
iOS Compass Heading
iOS Angle

Next 30 passes for location: Hong Kong

Rise time Rise Azimuth (degrees) Set time Set Azimuth (degrees) Duration Max altitude (degrees)

No matching passes for this satellites